Location: Centerville
(32.8776°N, 96.6203°W)
Time: 12:37:56
(UTC+00:00)

ADEOS II - Pass Details

Date: 17 June 2021
Orbit: 799 x 800 km, 98.6° (Epoch: 30 July)

Event Time Altitude Azimuth Distance (km) Brightness Sun altitude
Rises 09:32:59 0° 356° (N) 3,313 5.9 -18.4°
Reaches altitude 10° 09:35:44 10° 343° (NNW) 2,379 4.9 -18.0°
Maximum altitude 09:39:46 23° 292° (WNW) 1,643 3.5 -17.4°
Enters shadow 09:41:22 20° 266° (W) 1,776 3.5 -17.2°
